Wausau, WI

12:07 PM CDT on April 27, 2017 (GMT -0500)
Wausau Downtown

Weather History for KAUW - May, 2013

Change the Weather History Date:

Thursday, May 30, 2013

  Actual Average Record
Temperature  
Mean Temperature 73 °F 60 °F  
Max Temperature 83 °F 71 °F 94 °F (1939)
Min Temperature 62 °F 49 °F 32 °F (2001)
Degree Days  
Heating Degree Days 0 6  
Month to date heating degree days 287 302  
Since 1 July heating degree days 8166 8154  
Cooling Degree Days 8 1  
Month to date cooling degree days 30 13  
Year to date cooling degree days 31 15  
Growing Degree Days 22 (Base 50)    
Moisture  
Dew Point 65 °F    
Average Humidity 74    
Maximum Humidity 93    
Minimum Humidity 55    
Precipitation  
Precipitation 0.56 in 0.13 in 2.91 in (1942)
Month to date precipitation 4.75 3.35  
Year to date precipitation 14.47 9.78  
Snow  
Snow 0.00 in 0.00 in T in (1989)
Month to date snowfall 0.0 0.2  
Since 1 July snowfall 78.8 59.6  
Snow Depth 0.00 in    
Sea Level Pressure  
Sea Level Pressure 29.74 in    
Wind  
Wind Speed 11 mph (SSE)    
Max Wind Speed 31 mph    
Max Gust Speed 39 mph    
Visibility 8 miles    
Events Rain , Thunderstorm    
T = Trace of Precipitation, MM = Missing Value Source: NWS Daily Summary

Daily Weather History Graph

Daily Weather History Graph

Search for Another Location

Airport or City:

Trip Planner

Search our weather history database for the weather conditions in past years. The results will help you decide how hot, cold, wet, or windy it might be!

Date:

Astronomy

May. 30, 2013 Rise Set
Actual Time 5:16 AM CDT 8:36 PM CDT
Civil Twilight 4:40 AM CDT 9:12 PM CDT
Nautical Twilight 3:53 AM CDT 9:59 PM CDT
Astronomical Twilight 2:54 AM CDT 10:59 PM CDT
Moon 12:27 AM CDT (5/30) 11:35 AM CDT (5/30)
Length of Visible Light 16h 32m
Length of Day
15h 20m
Waning Gibbous, 62% of the Moon is Illuminated
May 30
Waning Gibbous
May 31
Last Quarter
Jun 8
New
Jun 16
First Quarter
Jun 23
Full

Hourly Weather History & Observations

Time (CDT) Temp. Heat Index Dew Point Humidity Pressure Visibility Wind Dir Wind Speed Gust Speed Precip Events Conditions
12:54 AM 63.0 °F - 61.0 °F 93% 29.84 in 9.0 mi SSE 9.2 mph - 0.02 in Rain Light Rain
1:54 AM 63.0 °F - 61.0 °F 93% 29.81 in 10.0 mi SSE 5.8 mph - 0.04 in   Overcast
2:54 AM 63.0 °F - 61.0 °F 93% 29.81 in 4.0 mi NNE 3.5 mph - 0.06 in Rain Rain
3:54 AM 63.0 °F - 62.1 °F 97% 29.80 in 10.0 mi East 5.8 mph - 0.00 in   Mostly Cloudy
4:54 AM 62.1 °F - 61.0 °F 96% 29.79 in 7.0 mi ESE 6.9 mph - N/A   Clear
5:54 AM 64.0 °F - 62.1 °F 93% 29.78 in 9.0 mi SE 6.9 mph - 0.01 in   Clear
6:54 AM 66.0 °F - 63.0 °F 90% 29.80 in 10.0 mi SE 9.2 mph - N/A   Clear
7:54 AM 69.1 °F - 64.0 °F 84% 29.78 in 10.0 mi SSE 10.4 mph - N/A   Clear
8:41 AM 71.6 °F - 64.4 °F 78% 29.78 in 10.0 mi SSE 11.5 mph - N/A   Mostly Cloudy
8:54 AM 72.0 °F - 64.9 °F 78% 29.79 in 10.0 mi South 15.0 mph 21.9 mph N/A   Overcast
9:54 AM 75.0 °F - 64.9 °F 71% 29.77 in 10.0 mi South 13.8 mph - N/A   Mostly Cloudy
10:54 AM 75.0 °F - 64.9 °F 71% 29.78 in 10.0 mi South 10.4 mph 21.9 mph N/A   Overcast
11:14 AM 78.8 °F - 66.2 °F 65% 29.78 in 10.0 mi South 13.8 mph - N/A   Mostly Cloudy
11:54 AM 80.1 °F 81.9 °F 64.9 °F 60% 29.75 in 10.0 mi SSE 18.4 mph 24.2 mph N/A   Clear
12:54 PM 79.0 °F - 63.0 °F 58% 29.74 in 10.0 mi South 19.6 mph 27.6 mph N/A   Overcast
1:54 PM 82.0 °F 83.4 °F 64.0 °F 54% 29.70 in 10.0 mi SSE 23.0 mph 27.6 mph N/A   Mostly Cloudy
2:12 PM 80.6 °F 82.3 °F 64.4 °F 58% 29.69 in 10.0 mi SSE 16.1 mph 24.2 mph N/A Thunderstorm Mostly Cloudy
2:36 PM 73.4 °F - 66.2 °F 78% 29.73 in 1.8 mi SSW 21.9 mph 32.2 mph 0.10 in Rain , Thunderstorm Thunderstorms and Rain
2:48 PM 69.8 °F - 64.4 °F 83% 29.74 in 3.0 mi South 12.7 mph 23.0 mph 0.16 in Rain , Thunderstorm Thunderstorms and Rain
2:54 PM 69.1 °F - 64.9 °F 87% 29.73 in 6.0 mi South 10.4 mph 20.7 mph 0.17 in Rain , Thunderstorm Light Thunderstorms and Rain
3:18 PM 69.8 °F - 64.4 °F 83% 29.72 in 10.0 mi SSE 6.9 mph - 0.00 in   Mostly Cloudy
3:54 PM 70.0 °F - 66.9 °F 90% 29.71 in 10.0 mi SSE 9.2 mph - 0.00 in   Clear
4:54 PM 73.9 °F - 66.9 °F 79% 29.70 in 10.0 mi SE 9.2 mph - N/A   Mostly Cloudy
5:14 PM 73.4 °F - 66.2 °F 78% 29.69 in 10.0 mi SSE 13.8 mph - N/A Thunderstorm Mostly Cloudy
5:43 PM 71.6 °F - 68.0 °F 88% 29.68 in 10.0 mi SE 9.2 mph - 0.00 in Rain Light Rain
5:54 PM 71.1 °F - 68.0 °F 90% 29.68 in 8.0 mi SE 9.2 mph - 0.01 in Rain Light Rain
6:54 PM 71.1 °F - 66.9 °F 87% 29.70 in 10.0 mi SSE 9.2 mph - 0.00 in   Partly Cloudy
7:54 PM 70.0 °F - 66.0 °F 87% 29.70 in 10.0 mi SE 6.9 mph - N/A   Scattered Clouds
8:30 PM 69.8 °F - 66.2 °F 88% 29.70 in 2.5 mi SE 13.8 mph 29.9 mph 0.09 in Rain , Thunderstorm Heavy Thunderstorms and Rain
8:38 PM 69.8 °F - 64.4 °F 83% 29.70 in 1.2 mi SSW 18.4 mph 39.1 mph 0.27 in Rain , Thunderstorm Heavy Thunderstorms and Rain
8:43 PM 69.8 °F - 66.2 °F 88% 29.70 in 3.0 mi South 11.5 mph 32.2 mph 0.27 in Rain , Thunderstorm Light Thunderstorms and Rain
8:54 PM 68.0 °F - 66.0 °F 93% 29.68 in 10.0 mi ESE 6.9 mph - 0.27 in Thunderstorm Mostly Cloudy
9:05 PM 68.0 °F - 66.2 °F 94% 29.68 in 10.0 mi East 8.1 mph - N/A   Scattered Clouds
9:54 PM 69.1 °F - 66.0 °F 90% 29.67 in 10.0 mi SE 9.2 mph 19.6 mph 0.00 in Rain Light Rain
10:54 PM 69.1 °F - 66.0 °F 90% 29.69 in 10.0 mi SSE 15.0 mph 20.7 mph 0.00 in   Mostly Cloudy
11:54 PM 68.0 °F - 63.0 °F 84% 29.68 in 10.0 mi SSE 17.3 mph 25.3 mph N/A   Mostly Cloudy